Weather reports worldwide

Advertisment
Northolt, United Kingdom (3672): temperature & dewpoint: 13.11.2019 18:00:00 - 19.11.2019 18:00:00 (GMT)Northolt, United Kingdom (3672): temperature -20cm & temperature -100cm: 13.11.2019 18:00:00 - 19.11.2019 18:00:00 (GMT)Northolt, United Kingdom (3672): wind speed & gusts: 13.11.2019 18:00:00 - 19.11.2019 18:00:00 (GMT)Northolt, United Kingdom (3672): wind direction: 13.11.2019 18:00:00 - 19.11.2019 18:00:00 (GMT)Northolt, United Kingdom (3672): reduced air pressure: 13.11.2019 18:00:00 - 19.11.2019 18:00:00 (GMT)Northolt, United Kingdom (3672): visibility: 13.11.2019 18:00:00 - 19.11.2019 18:00:00 (GMT)Northolt, United Kingdom (3672): precipitation: 13.11.2019 18:00:00 - 19.11.2019 18:00:00 (GMT)
Date & Time tt [°C] td [°C] tt -20cm [°C] tt -100cm [°C] ff [km/h] ff [kn] fx [km/h] fx [kn] dd ppp [hPa] vv [km] rr [mm]
19.11.2019 18:00:00 5,6 3,1 - - 9 5 - - ESE 1016,0 20 0,0
19.11.2019 17:00:00 6,3 3,4 - - 4 2 - - SE 1016,0 10 0,0
19.11.2019 16:00:00 6,2 3,0 - - 8 4 - - ESE 1016,0 10 0,0
19.11.2019 15:00:00 6,8 3,5 - - 8 4 - - SE 1016,3 10 0,0
19.11.2019 14:00:00 6,2 3,2 - - 8 4 - - ESE 1016,3 10 0,0
19.11.2019 13:00:00 5,5 3,1 - - 8 4 - - SSE 1016,7 10 0,0
19.11.2019 12:00:00 3,8 3,1 - - 2 1 - - ESE 1016,9 8 0,0
19.11.2019 11:00:00 1,6 1,4 - - 2 1 - - NNE 1017,7 9 0,0
19.11.2019 10:00:00 0,1 -0,1 - - 0 0 - - N 1017,9 5 0,0
19.11.2019 09:00:00 -0,9 -1,0 7,9 11,0 4 2 - - N 1017,7 2,0 0,0
19.11.2019 08:00:00 -2,0 -2,3 - - 2 1 - - NNW 1017,7 0,2 0,0
19.11.2019 07:00:00 -2,2 -2,5 - - 2 1 - - NW 1017,3 0,3 0,0
19.11.2019 06:00:00 -1,9 -2,2 - - 2 1 - - W 1017,1 2,0 0,0
19.11.2019 05:00:00 -2,5 -2,8 - - 0 0 - - N 1017,4 11 0,0
19.11.2019 04:00:00 -3,3 -3,8 - - 2 1 - - WNW 1017,5 11 0,0
19.11.2019 03:00:00 -3,0 -3,6 - - 2 1 - - NNW 1017,6 10 0,0
19.11.2019 02:00:00 -2,4 -2,9 - - 2 1 - - N 1017,6 9 0,0
19.11.2019 01:00:00 -2,2 -2,6 - - 4 2 - - W 1017,7 11 0,0
19.11.2019 00:00:00 -2,3 -2,9 - - 0 0 - - N 1017,7 16 0,0
18.11.2019 23:00:00 -1,8 -2,6 - - 4 2 - - W 1017,9 10 0,0
18.11.2019 22:00:00 -1,0 -1,6 - - 4 2 - - N 1017,9 10 0,0
18.11.2019 21:00:00 0,3 -0,3 - - 4 2 - - NNW 1018,0 10 0,0
18.11.2019 20:00:00 0,8 -0,3 - - 5 3 - - NW 1017,7 18 0,0
18.11.2019 19:00:00 1,6 0,4 - - 4 2 - - NNE 1017,5 10 0,0
18.11.2019 18:00:00 4,1 2,0 - - 9 5 - - WNW 1017,1 10 0,0
18.11.2019 17:00:00 4,1 1,5 - - 8 4 - - NNW 1016,8 10 0,0
18.11.2019 16:00:00 6,3 2,4 - - 9 5 - - NNW 1016,6 10 0,0
18.11.2019 15:00:00 8,1 2,3 - - 16 9 - - NNE 1016,2 10 0,0
18.11.2019 14:00:00 8,4 2,4 - - 21 11 - - N 1016,0 10 0,0
18.11.2019 13:00:00 8,4 3,6 - - 18 10 - - N 1015,7 10 0,0
18.11.2019 12:00:00 7,9 3,8 - - 16 9 - - N 1015,3 10 0,0
18.11.2019 11:00:00 7,4 3,8 - - 21 11 - - NNW 1015,8 10 0,0
18.11.2019 10:00:00 6,8 4,2 - - 15 8 - - N 1016,2 10 0,0
18.11.2019 09:00:00 5,3 4,0 8,4 11,2 11 6 - - NNW 1016,1 10 0,0
18.11.2019 08:00:00 4,3 3,2 - - 5 3 - - N 1015,8 10 0,0
18.11.2019 07:00:00 3,9 3,2 - - 9 5 - - NW 1015,5 10 0,0
18.11.2019 06:00:00 4,0 2,8 - - 9 5 - - NW 1015,0 10 0,0
18.11.2019 05:00:00 5,5 3,4 - - 11 6 - - N 1014,7 10 0,0
18.11.2019 04:00:00 6,5 3,8 - - 15 8 - - N 1014,4 45 0,0
18.11.2019 03:00:00 7,1 4,8 - - 21 11 - - N 1014,3 40 0,2
18.11.2019 02:00:00 6,7 5,3 - - 15 8 - - N 1013,8 10 0,0
18.11.2019 01:00:00 7,1 5,7 - - 15 8 - - N 1013,7 10 0,0
18.11.2019 00:00:00 7,2 6,8 - - 15 8 - - NNE 1013,8 2,7 0,0
17.11.2019 23:00:00 6,2 5,8 - - 4 2 - - NNE 1013,4 5 0,0
17.11.2019 22:00:00 5,0 4,6 - - 4 2 - - NW 1013,1 4,3 0,0
17.11.2019 21:00:00 4,8 4,4 - - 4 2 - - N 1013,3 4,1 0,0
17.11.2019 20:00:00 4,9 4,5 - - 5 3 - - NNW 1013,3 5 0,0
17.11.2019 19:00:00 3,2 2,4 - - 8 4 - - N 1013,0 7 0,0
17.11.2019 18:00:00 4,3 3,3 - - 4 2 - - N 1012,7 10 0,0
17.11.2019 17:00:00 5,0 2,6 - - 2 1 - - WNW 1012,3 10 0,0
17.11.2019 16:00:00 6,4 3,1 - - 8 4 - - N 1011,9 10 0,0
17.11.2019 15:00:00 8,1 2,5 - - 5 3 - - NNE 1011,9 10 0,0
17.11.2019 14:00:00 7,9 2,7 - - 2 1 - - ENE 1011,5 10 0,0
17.11.2019 13:00:00 7,7 3,4 - - 5 3 - - NNW 1011,3 10 0,0
17.11.2019 12:00:00 6,9 4,0 - - 2 1 - - N 1011,2 10 0,0
17.11.2019 11:00:00 4,7 4,4 - - 5 3 - - NW 1011,2 8 0,0
17.11.2019 10:00:00 2,6 2,4 - - 2 1 - - NNE 1011,4 6 0,0
17.11.2019 09:00:00 1,7 1,5 8,7 11,2 0 0 - - N 1011,2 5 0,0
17.11.2019 08:00:00 0,5 0,3 - - 2 1 - - S 1010,9 3,0 0,0
17.11.2019 07:00:00 0,4 0,2 - - 4 2 - - SSW 1010,3 2,0 0,0
17.11.2019 06:00:00 0,7 0,5 - - 2 1 - - NW 1009,7 3,7 0,0
17.11.2019 05:00:00 1,3 1,1 - - 2 1 - - NNW 1009,3 4,3 0,0
17.11.2019 04:00:00 1,1 0,8 - - 2 1 - - NNW 1009,3 2,5 0,0
17.11.2019 03:00:00 1,4 1,0 - - 2 1 - - NW 1009,3 3,5 0,0
17.11.2019 02:00:00 1,6 1,3 - - 2 1 - - NNW 1009,4 3,9 0,0
17.11.2019 01:00:00 1,8 1,4 - - 8 4 - - NNW 1009,4 4,3 0,0
17.11.2019 00:00:00 1,4 0,7 - - 4 2 - - ESE 1009,0 3,4 0,0
16.11.2019 23:00:00 2,7 1,9 - - 2 1 - - NNW 1008,9 5 0,0
16.11.2019 22:00:00 4,8 3,6 - - 5 3 - - S 1008,7 8 0,0
16.11.2019 21:00:00 4,6 3,4 - - 0 0 - - N 1008,7 10 0,0
16.11.2019 20:00:00 5,2 3,2 - - 4 2 - - W 1008,3 10 0,0
16.11.2019 19:00:00 6,1 3,7 - - 5 3 - - W 1008,1 10 0,0
16.11.2019 18:00:00 6,7 3,8 - - 4 2 - - S 1007,8 10 0,0
16.11.2019 17:00:00 6,7 3,9 - - 2 1 - - E 1007,6 10 0,0
16.11.2019 16:00:00 7,1 3,5 - - 0 0 - - N 1007,5 10 0,0
16.11.2019 15:00:00 7,2 3,0 - - 0 0 - - N 1007,3 10 0,0
16.11.2019 14:00:00 7,5 3,4 - - 4 2 - - E 1006,7 10 0,0
16.11.2019 13:00:00 7,5 3,5 - - 8 4 - - N 1006,5 10 0,0
16.11.2019 12:00:00 6,5 4,4 - - 8 4 - - N 1006,6 10 0,0
16.11.2019 11:00:00 6,1 4,1 - - 8 4 - - NNE 1006,6 10 0,0
16.11.2019 10:00:00 5,5 4,5 - - 4 2 - - NNW 1006,5 8 0,0
16.11.2019 09:00:00 4,7 4,0 8,7 11,5 5 3 - - NNE 1006,2 8 0,0
16.11.2019 08:00:00 3,6 3,0 - - 4 2 - - NE 1005,9 8 0,0
16.11.2019 07:00:00 3,9 2,6 - - 4 2 - - ENE 1005,4 8 0,0
16.11.2019 06:00:00 5,6 3,7 - - 11 6 - - ENE 1004,8 13 0,0
16.11.2019 05:00:00 5,7 3,7 - - 11 6 - - NE 1004,1 14 0,0
16.11.2019 04:00:00 5,7 3,8 - - 13 7 - - NE 1003,7 10 0,0
16.11.2019 03:00:00 6,1 3,4 - - 16 9 - - NE 1003,5 17 0,0
16.11.2019 02:00:00 5,9 4,1 - - 21 11 - - NE 1003,1 9 0,0
16.11.2019 01:00:00 6,0 4,2 - - 18 10 - - NE 1002,5 10 0,0
16.11.2019 00:00:00 6,1 4,4 - - 18 10 - - ENE 1002,1 10 0,0
15.11.2019 23:00:00 6,1 4,4 - - 21 11 - - NE 1001,9 9 0,0
15.11.2019 22:00:00 5,9 4,4 - - 16 9 - - NE 1001,7 10 0,0
15.11.2019 21:00:00 6,3 4,4 - - 22 12 - - ENE 1001,4 10 0,8
15.11.2019 20:00:00 6,8 5,8 - - 21 11 - - NNE 1001,3 10 0,4
15.11.2019 19:00:00 7,0 5,4 - - 26 14 - - NNE 1001,5 10 0,4
15.11.2019 18:00:00 7,2 5,0 - - 26 14 46 25 N 1001,8 9 0,0
15.11.2019 17:00:00 8,1 4,4 - - 26 14 - - NNE 1001,9 10 0,0
15.11.2019 16:00:00 8,3 4,1 - - 24 13 - - NNE 1002,1 10 0,0
15.11.2019 15:00:00 8,3 5,1 - - 22 12 - - NNE 1002,2 10 0,0
15.11.2019 14:00:00 8,6 4,9 - - 24 13 - - NNE 1002,5 10 0,0
15.11.2019 13:00:00 8,2 5,1 - - 24 13 - - NNE 1002,8 10 0,0
15.11.2019 12:00:00 8,0 5,5 - - 22 12 - - NNE 1003,7 10 0,0
15.11.2019 11:00:00 7,3 5,5 - - 18 10 - - NNE 1004,5 10 0,0
15.11.2019 10:00:00 6,6 5,3 - - 18 10 - - NNE 1004,6 10 0,0
15.11.2019 09:00:00 5,8 4,6 8,7 11,7 16 9 - - N 1004,3 10 0,0
15.11.2019 08:00:00 5,5 4,3 - - 21 11 - - NNE 1004,1 10 0,0
15.11.2019 07:00:00 5,1 3,7 - - 18 10 - - N 1004,1 10 0,0
15.11.2019 06:00:00 4,2 3,5 - - 13 7 - - N 1004,1 10 0,2
15.11.2019 05:00:00 4,1 3,4 - - 13 7 - - N 1003,9 8 0,0
15.11.2019 04:00:00 4,2 3,4 - - 11 6 - - N 1003,8 8 0,0
15.11.2019 03:00:00 3,9 3,5 - - 11 6 - - N 1004,1 7 0,0
15.11.2019 02:00:00 3,1 2,6 - - 5 3 - - NNE 1004,3 9 0,0
15.11.2019 01:00:00 3,9 3,2 - - 9 5 - - NNE 1004,2 10 0,0
15.11.2019 00:00:00 4,0 3,5 - - 13 7 - - NE 1004,2 10 0,0
14.11.2019 23:00:00 3,9 3,2 - - 13 7 - - NNE 1003,7 10 0,0
14.11.2019 22:00:00 4,2 3,3 - - 13 7 - - NNE 1003,4 10 0,0
14.11.2019 21:00:00 5,2 3,9 - - 9 5 - - NNE 1002,6 10 0,0
14.11.2019 20:00:00 5,0 3,6 - - 13 7 - - NE 1001,9 10 0,0
14.11.2019 19:00:00 5,6 4,0 - - 11 6 - - NE 1001,1 10 0,0
14.11.2019 18:00:00 6,2 3,6 - - 11 6 - - E 1000,5 10 0,0
14.11.2019 17:00:00 6,8 3,6 - - 13 7 - - E 999,3 10 0,0
14.11.2019 16:00:00 7,0 3,0 - - 4 2 - - SE 998,0 10 0,0
14.11.2019 15:00:00 8,2 2,6 - - 4 2 - - SE 997,0 10 0,0
14.11.2019 14:00:00 9,9 3,2 - - 9 5 - - SSE 996,1 10 0,0
14.11.2019 13:00:00 8,0 3,2 - - 9 5 - - SSE 995,6 10 0,0
14.11.2019 12:00:00 7,9 4,5 - - 9 5 - - SE 995,1 10 0,0
14.11.2019 11:00:00 6,5 3,7 - - 11 6 - - SSE 994,6 10 0,0
14.11.2019 10:00:00 6,0 4,3 - - 9 5 - - S 993,9 10 0,0
14.11.2019 09:00:00 4,5 3,7 8,7 11,7 9 5 - - S 992,9 10 0,0
14.11.2019 08:00:00 3,9 3,0 - - 5 3 - - SW 991,8 10 0,0
14.11.2019 07:00:00 3,9 3,2 - - 8 4 - - SSW 990,4 10 0,0
14.11.2019 06:00:00 3,8 3,3 - - 9 5 - - SW 989,5 5 0,2
14.11.2019 05:00:00 4,2 3,6 - - 5 3 - - W 988,3 10 0,8
14.11.2019 04:00:00 4,6 3,7 - - 15 8 - - SSW 988,0 5 1,8
14.11.2019 03:00:00 5,8 4,6 - - 21 11 - - E 988,0 6 1,8
14.11.2019 02:00:00 5,7 4,9 - - 13 7 - - E 988,7 5 3,6
14.11.2019 01:00:00 5,6 4,9 - - 11 6 - - SSE 989,2 3,9 4,2
14.11.2019 00:00:00 6,2 5,1 - - 16 9 - - S 989,6 6 2,0
13.11.2019 23:00:00 6,5 5,4 - - 18 10 - - ESE 989,8 5 0,8
13.11.2019 22:00:00 6,7 4,7 - - 22 12 - - ESE 990,6 10 0,0
13.11.2019 21:00:00 6,4 4,6 - - 21 11 - - ESE 991,6 17 0,4
13.11.2019 20:00:00 6,4 4,1 - - 15 8 - - SSE 992,7 10 0,0
13.11.2019 19:00:00 6,3 3,7 - - 16 9 - - SE 993,9 10 0,0
13.11.2019 18:00:00 5,4 2,8 - - 13 7 - - SE 994,7 10 0,0

tt = temperature
td = dewpoint
tt -20cm = temperature -20cm
tt -100cm = temperature -100cm
ff = wind speed
fx = gusts
dd = wind direction
ppp = reduced air pressure
vv = visibility
rr = precipitation

Next stations